This is the latest recevied weather packets stored in our database for station/object KC1IUC-13. If no packets are shown the sender has not sent any weather packets the latest 10 day(s).
| Time | Temp. | Humidity | Pressure | Rain* | Wind** | Luminosity | Snow |
|---|---|---|---|---|---|---|---|
| 1777118404 | 6.67° C | 75% | 1013.8 hPa | 0 mm | - | 86 W/m² | - |
| 1777118044 | 6.11° C | 75% | 1013.8 hPa | 0 mm | - | 72 W/m² | - |
| 1777117504 | 6.11° C | 75% | 1014.2 hPa | 0 mm | - | 56 W/m² | - |
| 1777116964 | 6.11° C | 75% | 1013.8 hPa | 0 mm | - | 32 W/m² | - |
| 1777116424 | 6.11° C | 74% | 1013.8 hPa | 0 mm | - | 29 W/m² | - |
| 1777115884 | 5.56° C | 75% | 1013.8 hPa | 0 mm | - | 35 W/m² | - |
| 1777115344 | 4.44° C | 75% | 1013.8 hPa | 0 mm | - | 26 W/m² | - |
| 1777114804 | 3.89° C | 74% | 1013.5 hPa | 0 mm | - | 22 W/m² | - |
| 1777114444 | 2.78° C | 75% | 1013.5 hPa | 0 mm | - | 19 W/m² | - |
| 1777113904 | 2.22° C | 74% | 1013.8 hPa | 0 mm | - | 16 W/m² | - |
| 1777113364 | 1.67° C | 74% | 1013.8 hPa | 0 mm | - | 12 W/m² | - |
| 1777112824 | 1.11° C | 74% | 1013.5 hPa | 0 mm | - | 9 W/m² | - |
| 1777112284 | 1.11° C | 74% | 1013.5 hPa | 0 mm | - | 6 W/m² | - |
| 1777111744 | 1.11° C | 74% | 1013.5 hPa | 0 mm | - | 4 W/m² | - |
| 1777111204 | 1.11° C | 73% | 1013.1 hPa | 0 mm | - | 1 W/m² | - |
| 1777110844 | 1.11° C | 73% | 1013.1 hPa | 0 mm | - | 0 W/m² | - |
| 1777110303 | 1.11° C | 73% | 1013.1 hPa | 0 mm | - | 0 W/m² | - |
| 1777109764 | 1.67° C | 72% | 1013.1 hPa | 0 mm | - | 0 W/m² | - |
| 1777109224 | 1.67° C | 73% | 1012.8 hPa | 0 mm | - | 0 W/m² | - |
| 1777108684 | 1.67° C | 72% | 1013.1 hPa | 0 mm | - | 0 W/m² | - |
| 1777108144 | 1.67° C | 71% | 1012.4 hPa | 0 mm | - | 0 W/m² | - |
| 1777107604 | 2.22° C | 71% | 1012.4 hPa | 0 mm | - | 0 W/m² | - |
| 1777107244 | 2.22° C | 71% | 1012.4 hPa | 0 mm | - | 0 W/m² | - |
| 1777106704 | 2.22° C | 71% | 1012.4 hPa | 0 mm | - | 0 W/m² | - |
| 1777106163 | 2.78° C | 71% | 1012.4 hPa | 0 mm | - | 0 W/m² | - |
* Rain latest hour (hover to see other rain measurements)
** Current wind speed in m/s (hover to see current wind gust speed)